Location: Newark
(49.2191°N, 12.6671°E)
Time: 10:59:31
(UTC+00:00)

Transit 2A - Pass Details

Date: 28 January 2020
Orbit: 600 x 959 km, 66.7° (Epoch: 22 February)

Event Time Altitude Azimuth Distance (km) Brightness Sun altitude
Rises 17:51:30 0° 190° (S) 2,886 9.2 -18.4°
Reaches altitude 10° 17:53:54 10° 182° (S) 1,959 8.2 -18.8°
Enters shadow 17:57:25 34° 131° (SE) 993 6.2 -19.3°
